User: anonymous   Login
Location: Terra Rouge Observatory
(46.0000°N, 62.7500°W)
Time: 09:51:41
(UTC-03:00)
Language:

Landsat 5 - Orbit

View from above orbital plane
View from above orbital plane
View from above satellite
View from above satellite

Ground track
Ground track

The orbit data is extracted from the following two-line orbital elements,

1 14780U 84021A   15186.17112062  .00000790  00000-0  81044-4 0  9993
2 14780 098.0306 274.8044 0092714 356.7991 003.2621 14.90412846669622
Epoch (UTC): 05 July 2015 04:06:24
Eccentricity: 0.0092714
inclination: 98.0306°
perigee height: 532 km
apogee height: 661 km
right ascension of ascending node: 274.8044°
argument of perigee: 356.7991°
revolutions per day: 14.90412846
mean anomaly at epoch: 3.2621°
orbit number at epoch: 66962

The dashed part of the orbit path shows where the satellite is in the earth's shadow,  

DLR